Regional Weather Roundup
Issued by NWS Jackson, KY

Home | Current Version | Previous Version | Graphics & Text | Print | Product List | Glossary On
Versions: 1 2 3 4 5 6 7 8 9 10 11 12 13 14 15 16 17 18 19 20 21 22 23 24 25 26 27 28 29 30 31 32 33 34 35 36 37 38 39 40 41 42 43 44 45 46 47 48 49 50
000
ASUS43 KJKL 310319
RWRJKL

EAST KENTUCKY HOURLY WEATHER ROUNDUP
NATIONAL WEATHER SERVICE JACKSON KY
1100 PM EDT SAT AUG 30 2014

NOTE: "FAIR" INDICATES FEW OR NO CLOUDS BELOW 12,000 FEET WITH
NO SIGNIFICANT WEATHER AND/OR OBSTRUCTIONS TO VISIBILITY.

* THESE REPORTS ARE NOT UNDER NWS QUALITY CONTROL AND MAY NOT
  REPORT WEATHER SUCH AS PRECIPITATION AND FOG.

KYZ079-080-083-085-087-088-110-112-115-119-120-310400
...EASTERN KENTUCKY...

CITY           SKY/WX    TMP DP  RH WIND       PRES   REMARKS
JACKSON        TSTM      73  70  90 CALM      30.14R FOG
LONDON         RAIN      72  69  90 S5        30.16F FOG
SOMERSET*      HVY RAIN  72  72 100 S6        30.15R
MONTICELLO*    FOG       73  72  94 S12       30.14S VSB 1
WILLIAMSBURG*  CLOUDY    68  68 100 CALM      30.15F
MIDDLESBORO*   CLOUDY    70  69  96 SE5       30.16F
HARLAN APT*    CLOUDY    72  72 100 MISG      30.17R
HAZARD APT*    RAIN      75  73  94 SW3       30.13R
BLACK MTN*       N/A     68  64  88 E3          N/A
PIKEVILLE APT* PTCLDY    77  70  78 SE3       30.12S
BIG SANDY*     CLOUDY    79  71  76 S3        30.10F
MOREHEAD APT*  LGT RAIN  73  70  88 SW3       30.11R
ASHLAND*       PTCLDY    73  68  83 CALM      30.03F
$$

KYZ035-036-041-042-044-050-067-078-099-310400
...CENTRAL KENTUCKY...

CITY           SKY/WX    TMP DP  RH WIND       PRES   REMARKS
MT STERLING*   RAIN      73  72  94 SW9       30.12R
FLEMING/MASON* MOCLDY    72  70  94 S5        30.08S
DANVILLE*      RAIN      72  72 100 S5        30.12S
RICHMOND*      CLOUDY    72  68  88 CALM      30.11F
LEXINGTON      LGT RAIN  74  70  87 SE6       30.09R
FRANKFORT      CLOUDY    72  71  97 SE5       30.06F
$$

KYZ091>093-OHZ055-061-077-WVZ005-015-034-035-042-310400
...SOUTHERN OHIO/WEST VIRGINIA...

CITY           SKY/WX    TMP DP  RH WIND       PRES   REMARKS
COVINGTON      CLOUDY    72  68  87 S6        30.05F
COLUMBUS       LGT RAIN  79  67  66 SW8       30.04S
DAYTON         CLOUDY    75  68  78 SW10      30.05S
WILMINGTON     LGT RAIN  70  67  90 SW7       30.06R
HUNTINGTON     CLOUDY    77  71  82 CALM      30.06S
CHARLESTON     MOCLDY    76  71  85 CALM      30.07S
PINEVILLE*     CLOUDY    71  70  98 MISG      30.21S
BECKLEY        PTCLDY    73  63  70 SE8       30.21S
BLUEFIELD      PTCLDY    75  63  66 S8        30.25R
$$

VAZ002-007-008-TNZ017-027-036-066-071-310400
...SOUTHWEST VIRGINIA/EAST TENNESSEE...

CITY           SKY/WX    TMP DP  RH WIND       PRES   REMARKS
WISE*          CLOUDY    73  61  64 S7        30.23S
JONESVILLE*    LGT RAIN  75  72  88 CALM      30.17R
ABINGDON*      PTCLDY    74  68  82 CALM      30.20S
BRISTOL        MOCLDY    77  63  61 CALM      30.16S
KNOXVILLE      LGT RAIN  72  70  93 NW3       30.12F
OAK RIDGE      LGT RAIN  72  70  93 SE3       30.14F
CROSSVILLE     LGT RAIN  73  67  81 W10       30.18F
NASHVILLE      LGT RAIN  72  70  93 S8        30.10R
$$

...KEY TO REMARKS...
VSB - VISIBILITY IN MILES
WCI - WIND CHILL INDEX
HX  - HEAT INDEX

$$


USA.gov is the U.S. government's official web portal to all federal, state and local government web resources and services.